DLH5CE ESGG-EDDB

Flight info

Callsign DLH5CE
Flight time N/A
Altitude 35000
Route TOPLA L996 ATRIB DCT SALLO DCT USEDU Z14 BEKBA T280 KETAP
Aircraft A320/M-SDE3FGHIRWY/LB1

Departure

Time 2026-05-07 16:05
Airport Göteborg Landvetter Airport (ESGG)

Arrival

Time N/A
Airport Berlin Brandenburg Airport (EDDB)
Time Latitude Longitude Altitude Speed Heading
2026-05-07 15:36 57.66851 12.29381 509 ft 0 kts 114°
2026-05-07 15:56 57.66852 12.29376 509 ft 2 kts 114°
2026-05-07 15:56 57.66863 12.29332 509 ft 4 kts 121°
2026-05-07 15:56 57.66879 12.29293 509 ft 4 kts 143°
2026-05-07 15:57 57.66899 12.29279 509 ft 2 kts 205°
2026-05-07 15:57 57.66901 12.29280 509 ft 0 kts 206°
2026-05-07 15:59 57.66886 12.29267 498 ft 6 kts 206°
2026-05-07 16:00 57.66837 12.29223 509 ft 8 kts 206°
2026-05-07 16:00 57.66791 12.29181 508 ft 7 kts 206°
2026-05-07 16:00 57.66772 12.29104 508 ft 9 kts 283°
2026-05-07 16:00 57.66814 12.29003 508 ft 11 kts 336°
2026-05-07 16:01 57.66883 12.29039 509 ft 10 kts 27°
2026-05-07 16:01 57.66965 12.29115 510 ft 21 kts 25°
2026-05-07 16:01 57.67111 12.29246 511 ft 19 kts 26°
2026-05-07 16:01 57.67235 12.29363 512 ft 20 kts 26°
2026-05-07 16:02 57.67349 12.29465 514 ft 14 kts 25°
2026-05-07 16:02 57.67425 12.29413 514 ft 14 kts 294°
2026-05-07 16:02 57.67458 12.29267 514 ft 11 kts 280°
2026-05-07 16:02 57.67459 12.29258 514 ft 0 kts 277°
2026-05-07 16:03 57.67459 12.29252 514 ft 3 kts 272°
2026-05-07 16:03 57.67457 12.29121 512 ft 14 kts 265°
2026-05-07 16:03 57.67411 12.29005 512 ft 0 kts 208°
2026-05-07 16:04 57.67358 12.28956 512 ft 38 kts 206°
2026-05-07 16:04 57.66892 12.28527 508 ft 108 kts 206°
2026-05-07 16:05 57.66038 12.27752 499 ft 162 kts 204°
2026-05-07 16:05 57.64968 12.26885 985 ft 168 kts 211°
2026-05-07 16:05 57.63920 12.25979 1833 ft 166 kts 208°
2026-05-07 16:05 57.62830 12.24951 2278 ft 185 kts 209°
2026-05-07 16:06 57.61636 12.23798 2692 ft 202 kts 209°
2026-05-07 16:06 57.60258 12.22774 3106 ft 227 kts 193°
2026-05-07 16:06 57.58609 12.22402 3590 ft 251 kts 184°
2026-05-07 16:06 57.56800 12.22287 4242 ft 265 kts 181°
2026-05-07 16:07 57.54957 12.22434 5208 ft 267 kts 168°
2026-05-07 16:07 57.53137 12.23159 6149 ft 269 kts 169°
2026-05-07 16:07 57.51278 12.23775 7040 ft 273 kts 171°
2026-05-07 16:07 57.49389 12.24327 7896 ft 277 kts 172°
2026-05-07 16:08 57.47471 12.24851 8740 ft 281 kts 173°
2026-05-07 16:08 57.45515 12.25370 9576 ft 285 kts 173°
2026-05-07 16:08 57.43534 12.25894 10387 ft 292 kts 174°
2026-05-07 16:08 57.41437 12.26444 10672 ft 316 kts 174°
2026-05-07 16:09 57.39181 12.27036 10925 ft 338 kts 174°
2026-05-07 16:09 57.36812 12.27665 11486 ft 348 kts 174°
2026-05-07 16:09 57.34389 12.28317 12195 ft 353 kts 174°
2026-05-07 16:09 57.31973 12.28968 12924 ft 358 kts 173°
2026-05-07 16:10 57.29493 12.29635 13659 ft 362 kts 173°
2026-05-07 16:10 57.26989 12.30308 14338 ft 366 kts 174°
2026-05-07 16:10 57.24461 12.30987 14903 ft 370 kts 174°
2026-05-07 16:10 57.21903 12.31674 15546 ft 372 kts 174°
2026-05-07 16:11 57.19328 12.32363 16205 ft 375 kts 174°
2026-05-07 16:11 57.16732 12.33054 16856 ft 379 kts 174°
2026-05-07 16:11 57.14109 12.33750 17499 ft 382 kts 174°
2026-05-07 16:11 57.11467 12.34444 18139 ft 385 kts 174°
2026-05-07 16:12 57.08798 12.35120 18715 ft 389 kts 174°
2026-05-07 16:12 57.06102 12.35780 19264 ft 392 kts 174°
2026-05-07 16:12 57.03388 12.36439 19819 ft 395 kts 175°
2026-05-07 16:12 57.00652 12.37106 20371 ft 398 kts 175°
2026-05-07 16:13 56.97894 12.37780 20913 ft 402 kts 174°
2026-05-07 16:13 56.95109 12.38468 21445 ft 405 kts 174°
2026-05-07 16:13 56.92305 12.39166 21965 ft 408 kts 175°
2026-05-07 16:13 56.89484 12.39867 22474 ft 411 kts 175°
2026-05-07 16:14 56.86639 12.40568 22970 ft 414 kts 175°
2026-05-07 16:14 56.83774 12.41268 23445 ft 417 kts 175°
2026-05-07 16:14 56.80887 12.41968 23880 ft 420 kts 175°
2026-05-07 16:14 56.77983 12.42674 24268 ft 422 kts 175°
2026-05-07 16:15 56.75061 12.43387 24648 ft 424 kts 175°
2026-05-07 16:15 56.72127 12.44110 25018 ft 427 kts 174°
2026-05-07 16:15 56.69178 12.44840 25395 ft 429 kts 174°
2026-05-07 16:15 56.66217 12.45569 25760 ft 431 kts 174°
2026-05-07 16:16 56.63241 12.46294 26123 ft 433 kts 174°
2026-05-07 16:16 56.60248 12.47017 26470 ft 435 kts 174°
2026-05-07 16:16 56.57246 12.47742 26814 ft 437 kts 174°
2026-05-07 16:16 56.54225 12.48471 27158 ft 439 kts 174°
2026-05-07 16:17 56.51188 12.49204 27492 ft 441 kts 174°
2026-05-07 16:17 56.48145 12.49936 27809 ft 443 kts 174°
2026-05-07 16:17 56.45081 12.50670 28116 ft 445 kts 174°
2026-05-07 16:17 56.42022 12.51630 28423 ft 448 kts 167°
2026-05-07 16:18 56.39036 12.53304 28717 ft 451 kts 163°
2026-05-07 16:18 56.36055 12.55112 28999 ft 452 kts 163°
2026-05-07 16:18 56.33066 12.56921 29284 ft 454 kts 163°
2026-05-07 16:18 56.30067 12.58727 29562 ft 455 kts 163°
2026-05-07 16:19 56.27056 12.60528 29819 ft 457 kts 163°
2026-05-07 16:19 56.24028 12.62333 30063 ft 458 kts 163°
2026-05-07 16:19 56.21002 12.64136 30384 ft 457 kts 163°
2026-05-07 16:19 56.19004 12.65325 30587 ft 457 kts 163°
2026-05-07 16:20 56.15994 12.67115 30884 ft 456 kts 163°
2026-05-07 16:20 56.12982 12.68904 31169 ft 455 kts 163°
2026-05-07 16:20 56.09978 12.70688 31458 ft 455 kts 163°
2026-05-07 16:20 56.06975 12.72468 31757 ft 454 kts 163°
2026-05-07 16:21 56.03976 12.74239 32067 ft 453 kts 163°
2026-05-07 16:21 56.00980 12.76002 32350 ft 453 kts 163°
2026-05-07 16:21 55.97984 12.77763 32644 ft 452 kts 163°
2026-05-07 16:21 55.94999 12.79515 32950 ft 451 kts 163°
2026-05-07 16:22 55.92019 12.81263 33253 ft 451 kts 162°
2026-05-07 16:22 55.89043 12.83011 33545 ft 450 kts 162°
2026-05-07 16:22 55.86070 12.84757 33843 ft 450 kts 162°
2026-05-07 16:22 55.83102 12.86497 34138 ft 449 kts 162°
2026-05-07 16:23 55.80138 12.88227 34404 ft 448 kts 163°
2026-05-07 16:23 55.77179 12.89947 34680 ft 447 kts 163°
2026-05-07 16:23 55.74222 12.91662 34903 ft 446 kts 163°
2026-05-07 16:23 55.71268 12.93374 35095 ft 446 kts 163°
2026-05-07 16:24 55.68319 12.95084 35130 ft 446 kts 163°
2026-05-07 16:24 55.62420 12.98508 35130 ft 446 kts 163°
2026-05-07 16:25 55.56520 13.01913 35115 ft 446 kts 163°
2026-05-07 16:25 55.50607 13.05308 35116 ft 446 kts 163°
2026-05-07 16:26 55.44708 13.08689 35116 ft 445 kts 163°
2026-05-07 16:26 55.38817 13.12063 35118 ft 445 kts 163°
2026-05-07 16:27 55.32932 13.15411 35118 ft 444 kts 163°
2026-05-07 16:27 55.27047 13.18738 35119 ft 444 kts 163°
2026-05-07 16:28 55.21168 13.22062 35124 ft 444 kts 163°
2026-05-07 16:28 55.15289 13.25390 35122 ft 443 kts 163°
2026-05-07 16:29 55.09415 13.28694 35125 ft 443 kts 163°
2026-05-07 16:29 55.03540 13.31988 35124 ft 443 kts 163°
2026-05-07 16:30 54.97676 13.35275 35124 ft 443 kts 163°
2026-05-07 16:30 54.91814 13.38537 35122 ft 442 kts 164°
2026-05-07 16:31 54.85981 13.41968 35123 ft 443 kts 162°
2026-05-07 16:31 54.80189 13.45611 35124 ft 443 kts 161°
2026-05-07 16:32 54.74404 13.49245 35119 ft 442 kts 162°
2026-05-07 16:32 54.68600 13.52798 35124 ft 442 kts 162°